EW9372 Weather Reports


Display with metric or nautical units.
time (UTC)temp
F
wind
direction
speed
MPH
gust
MPH
rain 1hr
in
rain 24hr
in
rain mn
in
humidity
%
barometer
mb
20260504013329 68 229 4.0 9.0 0.00 0.00 0.00 54 1009.9
20260504012824 68 234 4.0 9.0 0.00 0.00 0.00 54 1009.9
20260504012321 68 232 3.0 7.0 0.00 0.00 0.00 53 1010.1
20260504012229 69 232 3.0 9.0 0.00 0.00 0.00 53 1010.0
20260504011428 69 237 4.0 10.0 0.00 0.00 0.00 54 1010.1
20260504010220 69 233 4.0 10.0 0.00 0.00 0.00 53 1010.1
20260504005724 69 213 3.0 10.0 0.00 0.00 0.00 54 1010.2
20260504005223 68 240 3.0 0.0 0.00 0.00 0.00 54 1010.1
20260504004343 68 245 2.0 3.0 0.00 0.00 0.00 55 1009.9
20260504003838 68 198 4.0 6.0 0.00 0.00 0.00 55 1009.9
20260504002117 68 178 1.0 5.0 0.00 0.00 0.00 56 1009.9
20260504001602 68 235 1.0 5.0 0.00 0.00 0.00 55 1009.9
20260504001039 68 205 2.0 3.0 0.00 0.00 0.00 56 1009.9
20260504000539 68 227 3.0 3.0 0.00 0.00 0.00 56 1009.8
20260503235310 68 223 2.0 5.0 0.00 0.00 0.00 58 1010.0
20260503234815 67 219 1.0 2.0 0.00 0.00 0.00 58 1010.0
20260503233242 67 194 1.0 4.0 0.00 0.00 0.00 58 1010.5
20260503232739 66 180 1.0 3.0 0.00 0.00 0.00 58 1010.6
20260503232234 67 178 1.0 3.0 0.00 0.00 0.00 58 1010.6
20260503231722 67 179 1.0 6.0 0.00 0.00 0.00 58 1010.6
20260503231235 67 221 3.0 6.0 0.00 0.00 0.00 58 1010.5
20260503230720 66 236 5.0 2.0 0.00 0.00 0.00 58 1010.5
20260503230431 66 237 4.0 10.0 0.00 0.00 0.00 59 1010.6
20260503224922 66 245 4.0 10.0 0.00 0.00 0.00 58 1010.5
20260503224424 66 202 5.0 9.0 0.00 0.00 0.00 59 1010.4
20260503224420 67 219 4.0 9.0 0.00 0.00 0.00 58 1010.4
20260503223420 66 242 5.0 5.0 0.00 0.00 0.00 58 1010.5
20260503222451 66 225 3.0 7.0 0.00 0.00 0.00 58 1010.5
20260503221454 66 216 4.0 8.0 0.00 0.00 0.00 59 1010.3
20260503221450 67 245 3.0 7.0 0.00 0.00 0.00 58 1010.5
20260503220449 66 234 4.0 8.0 0.00 0.00 0.00 59 1010.2
20260503215949 65 240 5.0 10.0 0.00 0.00 0.00 60 1010.2
20260503215449 65 226 6.0 11.0 0.00 0.00 0.00 59 1010.2
20260503214954 66 228 5.0 7.0 0.00 0.00 0.00 59 1010.3
20260503214950 65 215 5.0 11.0 0.00 0.00 0.00 59 1010.2
20260503213947 66 236 6.0 7.0 0.00 0.00 0.00 59 1010.3
20260503212715 66 227 3.0 10.0 0.00 0.00 0.00 58 1010.3
20260503212216 66 205 3.0 7.0 0.00 0.00 0.00 59 1010.5
20260503211711 66 227 4.0 7.0 0.00 0.00 0.00 58 1010.5
20260503211212 66 227 3.0 7.0 0.00 0.00 0.00 59 1010.5
20260503210710 65 236 4.0 6.0 0.00 0.00 0.00 59 1010.5
20260503210210 65 251 5.0 4.0 0.00 0.00 0.00 58 1010.5
20260503205005 66 230 4.0 11.0 0.00 0.00 0.00 58 1010.6
20260503204945 66 251 3.0 9.0 0.00 0.00 0.00 57 1010.6
20260503203946 67 207 3.0 10.0 0.00 0.00 0.00 57 1010.6
20260503203445 66 236 4.0 10.0 0.00 0.00 0.00 57 1010.6
20260503202945 67 205 3.0 6.0 0.00 0.00 0.00 56 1010.5
20260503202448 67 240 3.0 6.0 0.00 0.00 0.00 56 1010.5
20260503201944 67 198 3.0 10.0 0.00 0.00 0.00 56 1010.7
20260503201445 68 201 4.0 10.0 0.00 0.00 0.00 56 1010.7
20260503200943 68 236 4.0 9.0 0.00 0.00 0.00 56 1010.7
20260503200447 67 254 4.0 7.0 0.00 0.00 0.00 56 1010.8
20260503194958 69 145 4.0 7.0 0.00 0.00 0.00 55 1010.9
20260503194504 69 246 4.0 2.0 0.00 0.00 0.00 56 1011.1
20260503193001 67 223 5.0 10.0 0.00 0.00 0.00 57 1011.1
20260503192504 66 169 6.0 12.0 0.00 0.00 0.00 57 1011.1
20260503192000 66 257 5.0 12.0 0.00 0.00 0.00 58 1010.9
20260503191505 66 225 4.0 9.0 0.00 0.00 0.00 58 1011.0
20260503191005 65 234 4.0 12.0 0.00 0.00 0.00 59 1011.2
20260503190237 64 209 4.0 10.0 0.00 0.00 0.00 65 1011.3
20260503185457 65 194 3.0 10.0 0.00 0.00 0.00 63 1011.1
20260503184501 62 222 4.0 9.0 0.00 0.00 0.00 67 1011.3
20260503183957 62 210 4.0 5.0 0.00 0.00 0.00 67 1011.2
20260503182946 59 261 4.0 10.0 0.00 0.00 0.00 71 1011.1
20260503181944 59 195 4.0 10.0 0.00 0.00 0.00 72 1011.2
20260503181449 60 202 3.0 11.0 0.00 0.00 0.00 71 1010.7
20260503181445 59 183 3.0 9.0 0.00 0.00 0.00 72 1011.0
20260503180942 59 259 3.0 7.0 0.00 0.00 0.00 70 1011.2
20260503175944 60 188 3.0 11.0 0.00 0.00 0.00 71 1011.1
20260503175445 60 205 4.0 1.0 0.00 0.00 0.00 71 1011.1
20260503174508 61 250 5.0 12.0 0.00 0.00 0.00 69 1010.9
20260503173507 61 183 3.0 12.0 0.00 0.00 0.00 70 1010.9
20260503173007 60 196 3.0 6.0 0.00 0.00 0.00 72 1010.7
20260503172504 59 179 4.0 10.0 0.00 0.00 0.00 73 1011.0
20260503172006 58 217 3.0 10.0 0.00 0.00 0.00 73 1010.9
20260503171512 59 222 3.0 11.0 0.00 0.00 0.00 73 1010.7
20260503171001 59 213 3.0 11.0 0.00 0.00 0.00 73 1010.6
20260503170508 59 165 3.0 10.0 0.00 0.00 0.00 72 1010.8
20260503170503 59 209 3.0 10.0 0.00 0.00 0.00 73 1010.8
20260503150305 55 161 4.0 7.0 0.00 0.00 0.00 81 1009.4
20260503131226 52 171 3.0 7.0 0.00 0.00 0.00 85 1007.9
20260503130730 53 205 3.0 7.0 0.00 0.00 0.00 85 1007.9
20260503130725 53 168 3.0 7.0 0.00 0.00 0.00 85 1008.0
20260503090221 55 211 1.0 4.0 0.00 0.00 0.00 81 1008.1
20260503081146 56 205 0.0 4.0 0.00 0.00 0.00 79 1008.5
20260503081139 56 201 0.0 2.0 0.00 0.00 0.00 79 1008.6
20260503080130 56 205 0.0 3.0 0.00 0.00 0.00 79 1008.7
20260503072537 56 201 2.0 4.0 0.00 0.00 0.00 77 1008.8
20260503072033 56 197 2.0 4.0 0.00 0.00 0.00 77 1008.9
20260503071530 57 200 1.0 4.0 0.00 0.00 0.00 77 1009.0
20260503071032 57 186 2.0 3.0 0.00 0.00 0.00 76 1008.9
20260503070528 57 201 2.0 5.0 0.00 0.00 0.00 76 1009.0
20260503055014 59 213 2.0 4.0 0.00 0.00 0.00 71 1009.2
20260503054515 60 203 2.0 5.0 0.00 0.00 0.00 71 1009.3
20260503054011 60 210 2.0 5.0 0.00 0.00 0.00 71 1009.2
20260503053507 60 195 2.0 4.0 0.00 0.00 0.00 71 1009.3
20260503052108 61 228 1.0 4.0 0.00 0.00 0.00 69 1009.2
20260503052104 61 223 1.0 5.0 0.00 0.00 0.00 70 1009.2
20260503051105 61 204 2.0 5.0 0.00 0.00 0.00 69 1009.2
20260503050533 61 233 2.0 5.0 0.00 0.00 0.00 68 1009.2
20260503050030 62 225 1.0 5.0 0.00 0.00 0.00 67 1009.2
20260503045530 62 229 0.0 0.0 0.00 0.00 0.00 67 1009.2
20260503045523 62 227 0.0 3.0 0.00 0.00 0.00 67 1009.1
20260503043734 62 233 2.0 6.0 0.00 0.00 0.00 65 1009.2
20260503043234 62 239 2.0 1.0 0.00 0.00 0.00 66 1009.1
20260503041947 63 229 2.0 2.0 0.00 0.00 0.00 65 1009.0
20260503040349 64 182 1.0 4.0 0.00 0.00 0.00 65 1008.9
20260503035848 64 212 1.0 3.0 0.00 0.00 0.00 66 1008.8
20260503035836 65 237 2.0 5.0 0.00 0.00 0.00 65 1008.6
20260503035544 64 214 0.0 3.0 0.00 0.00 0.00 66 1008.7
20260503035043 65 237 1.0 4.0 0.00 0.00 0.00 66 1008.6
20260503033827 65 232 2.0 5.0 0.00 0.00 0.00 65 1008.5
20260503033333 65 216 3.0 5.0 0.00 0.00 0.00 64 1008.5
20260503033328 65 233 2.0 5.0 0.00 0.00 0.00 65 1008.5
20260503032827 65 231 3.0 5.0 0.00 0.00 0.00 64 1008.5
20260503031824 66 234 3.0 5.0 0.00 0.00 0.00 62 1008.4
20260503031323 66 217 3.0 6.0 0.00 0.00 0.00 62 1008.4
20260503030829 67 234 4.0 3.0 0.00 0.00 0.00 61 1008.3
20260503030822 66 232 4.0 6.0 0.00 0.00 0.00 61 1008.3
20260503025056 67 240 4.0 7.0 0.00 0.00 0.00 60 1008.4
20260503024559 67 240 3.0 7.0 0.00 0.00 0.00 60 1008.4
20260503024055 68 225 3.0 5.0 0.00 0.00 0.00 60 1008.3
20260503023556 68 237 3.0 2.0 0.00 0.00 0.00 59 1008.2
20260503022024 70 235 4.0 8.0 0.00 0.00 0.00 57 1008.4
20260503022018 69 217 4.0 7.0 0.00 0.00 0.00 57 1008.2
20260503021519 70 250 4.0 7.0 0.00 0.00 0.00 57 1008.3
20260503020515 71 223 4.0 8.0 0.00 0.00 0.00 56 1008.4
20260503020020 71 224 3.0 1.0 0.00 0.00 0.00 56 1008.4
20260503014649 72 226 4.0 7.0 0.00 0.00 0.00 55 1008.3
20260503014150 73 237 3.0 7.0 0.00 0.00 0.00 54 1008.2
20260503013652 73 221 2.0 6.0 0.00 0.00 0.00 53 1008.4